Regional Weather Roundup
Issued by NWS Huntsville, AL

Home | Current Version | Previous Version | Text Only | Print | Product List | Glossary On
Versions: 1 2 3 4 5 6 7 8 9 10 11 12 13 14 15 16 17 18 19 20 21 22 23 24 25 26 27 28 29 30 31 32 33 34 35 36 37 38 39 40 41 42 43 44 45 46 47 48 49 50
000
ASUS44 KHUN 300810
RWRHUN

WEATHER ROUNDUP FOR THE TENNESSEE VALLEY
NATIONAL WEATHER SERVICE HUNTSVILLE AL
200 AM CST FRI JAN 30 2015

ALZ001>004-300900-
NORTHWEST ALABAMA

CITY           SKY/WX    TMP DP  RH WIND       PRES   REMARKS
RUSSELLVILLE     N/A     41 N/A N/A MISG        N/A
SHOALS AIRPORT CLOUDY    43  30  60 N8        30.36S
SHOALS TVA RES   N/A     43 N/A N/A MISG        N/A
$$

ALZ005>007-016-300900-
NORTH CENTRAL ALABAMA

CITY           SKY/WX    TMP DP  RH WIND       PRES   REMARKS
CULLMAN AG STN   N/A     41 N/A N/A N10         N/A
DECATUR AP     CLOUDY    42  30  62 N13       30.33S
HUNTSVILLE AP  CLOUDY    43  29  57 N9G17     30.32S
HUN NWS/UAH      N/A     41  28  60 N9          N/A
MERIDIANVILLE  CLOUDY    39  28  65 N7        30.32S WCI  34
REDSTONE ARSN  CLOUDY    41  30  64 N20       30.31S
$$

ALZ008>010-300900-
NORTHEAST ALABAMA

CITY           SKY/WX    TMP DP  RH WIND       PRES   REMARKS
ALBERTVILLE    CLOUDY    39  32  75 N17       30.28R WCI  30
FORT PAYNE     CLOUDY    39  25  56 N7G16     30.28R WCI  34
SCOTTSBORO AP  CLOUDY    41  28  60 N13G20    30.30F
VALLEY HEAD      N/A     39 N/A N/A MISG        N/A
$$

TNZ076-096-097-300900-
SOUTHEASTERN MIDDLE TENNESSEE

CITY           SKY/WX    TMP DP  RH WIND       PRES   REMARKS
TULLAHOMA      CLOUDY    36  28  75 N7        30.30S WCI  30
WINCHESTER     CLOUDY    36  30  80 N12       30.31R WCI  27
$$

...SURROUNDING SITES...

CITY           SKY/WX    TMP DP  RH WIND       PRES   REMARKS
ATLANTA        CLOUDY    47  36  65 N22G30    30.15R
ANNISTON       CLOUDY    44  31  60 NW10G20   30.27R
BIRMINGHAM     CLOUDY    43  31  62 N15       30.31R
CHATTANOOGA    CLOUDY    41  27  57 N13       30.28R
CORINTH        CLOUDY    43  28  56 N13G22    30.37S
DALTON         CLOUDY    39  30  70 N15G22    30.25R WCI  31
GADSDEN        CLOUDY   N/A N/A N/A N15G21    30.29R
GOLDEN TRNGL   PTCLDY    41  28  60 N13G20    30.36S
HALEYVILLE       N/A     39  29  68 N10G20    30.34F WCI  32
JACKSON TN     CLOUDY    42  29  59 N13       30.40R
LEWISBURG      CLOUDY    39  31  73 N6        30.33S WCI  35
MEMPHIS        MOCLDY    41  29  62 N5        30.42S
NASHVILLE      CLOUDY    37  30  75 NW13G23   30.36R WCI  29
OXFORD MS      FAIR      36  27  69 N7        30.41F WCI  30
ROME           CLOUDY    42  30  62 N16G30    30.25R
SAVANNAH       CLOUDY    41  27  56 N8        30.37F
TUPELO         PTCLDY    41  28  60 N10       30.38S
TUSCALOOSA     CLOUDY    45  30  55 N18G25    30.34R
$$

...GULF COAST WEATHER...

CITY           SKY/WX    TMP DP  RH WIND       PRES   REMARKS
GULFPORT       CLOUDY    57  51  80 N8        30.24R
PASCAGOULA     MOCLDY    58  53  84 N12       30.23R
MOBILE         MOCLDY    56  52  86 N14       30.23R
GULF SHORES    PTSUNNY   58  57  94 NW7       30.20R
PENSACOLA      MOCLDY    61  57  87 NW6       30.19R
DESTIN         MOCLDY    64  59  83 VRB5      30.17S
PANAMA CITY    CLOUDY    62  60  91 SW9       30.17F
APPALACHICOLA  HAZE      63  56  78 SW8       30.17F VSB 1/4
$$



USA.gov is the U.S. government's official web portal to all federal, state and local government web resources and services.